Tracking 28790 objects as of 19-Apr-2024
HD Live streaming from Space Station
objects crossing your sky now

FREGAT DEB

Track FREGAT DEB now!
10-day predictions


NORAD ID: 55980
Int'l Code: 2011-037PU
Perigee: 886.6 km
Apogee: 2,302.2 km
Inclination: 49.8 °
Period: 117.9 minutes
Semi major axis: 7965 km
RCS: Unknown
Launch date: July 18, 2011
Source: Commonwealth of Independent States (former USSR) (CIS)
Launch site: TYURATAM MISSILE AND SPACE COMPLEX (TTMTR)

Note: This is SATELLITE DEBRIS
Your satellite tracking list
Your tracking list is empty




NASA's NSSDC Master Catalog

Two Line Element Set (TLE):
1 55980U 11037PU  24109.57582393  .00294393  00000-0  75801+0 0  9997
2 55980  49.8385 258.3837 0888611 212.0940 142.2697 12.21216371 72895
Source of the keplerian elements: AFSPC